Zurück zum Katalog

STARLINK-34302

AktivKommunikationVLEO
NORAD 65216·PAYLOAD·🇺🇸 United States

Gestartet Aug 14, 2025 von Cape Canaveral Space Force Station

Loading…

Nächste Überflüge (nächste 24 Stunden)

TLE

AktuellSource: CelesTrak SupGP

Epoche: Sep 14, 2026, 21:36 UTC

1 65216C 25176U   26257.90048611 -.00003095  00000+0 -91443-4 0  2572
2 65216  53.1587 349.8927 0001118  79.1920 347.5306 15.34390379    15

Verfolge STARLINK-34302 in Echtzeit mit AllMySat

Download on the App Store